Regional Weather Roundup
Issued by NWS Sioux Falls, SD

Home | Current Version | Previous Version | Graphics & Text | Print | Product List | Glossary Off
Versions: 1 2 3 4 5 6 7 8 9 10 11 12 13 14 15 16 17 18 19 20 21 22 23 24 25 26 27 28 29 30 31 32 33 34 35 36 37 38 39 40 41 42 43 44 45 46 47 48 49 50

337
ASUS43 KFSD 191910
RWRFSD

WEATHER ROUNDUP FOR SE SOUTH DAKOTA/SW MINNESOTA/NW IOWA
NATIONAL WEATHER SERVICE SIOUX FALLS SD
100 PM CST MON FEB 19 2018

NOTE: "FAIR" INDICATES FEW OR NO CLOUDS BELOW 12,000 FEET WITH NO
SIGNIFICANT WEATHER AND OR OBSTRUCTIONS TO VISIBILITY.


SDZ038>040-050-052>070-192000-
SOUTHEAST SOUTH DAKOTA

CITY           SKY/WX    TMP DP  RH WIND       PRES   REMARKS
BROOKINGS      FLURRIES  12   7  80 N25       29.88F WCI  -8
CHAMBERLAIN    LGT SNOW  12   8  83 NW16G25   30.00S WCI  -5
HURON          LGT SNOW  12   6  77 N22       29.98F WCI  -7
MADISON        LGT RAIN  14  14 100 N21G31    29.86F WCI  -4
MITCHELL       LGT SNOW  15  10  80 N20       29.95F WCI  -2
SIOUX FALLS    LGT SNOW  17  12  80 NE20      29.86F WCI   1
WINNER         LGT SNOW  10   4  76 N21       29.99S WCI  -9
YANKTON        LGT SNOW  17  13  84 N16       29.89S FOG     WCI   2
$$

MNZ071-072-080-081-089-090-097-098-192000-
SOUTHWEST MINNESOTA

CITY           SKY/WX    TMP DP  RH WIND       PRES   REMARKS
FAIRMONT       MIX PCPN  21  19  92 MISG      29.78F FOG
JACKSON        CLOUDY    18  14  86 N18       29.79F WCI   2
LUVERNE        LGT SNOW  18  12  79 NE16G23   29.84F WCI   3
MARSHALL       FLURRIES  16  12  84 N18       29.91F WCI   0
MONTEVIDEO     CLOUDY    16  10  79 NE20      29.95F WCI  -1
PIPESTONE      LGT SNOW  14  10  85 NE20G30   29.83F WCI  -3
REDWOOD FALLS  LGT SNOW  18  13  80 N13G26    29.89F WCI   5
TRACY          LGT SNOW  18  15  89 N21G26    29.88F WCI   1
WINDOM         CLOUDY    18   3  53 N20       29.81F HAZE    WCI   1
WORTHINGTON    LGT SNOW  16  12  84 N21G28    29.81F FOG     WCI  -1
$$

IAZ001>003-012>014-020>022-031-032-NEZ013-014-SDZ071-192000-
NORTHWEST IOWA

CITY           SKY/WX    TMP DP  RH WIND       PRES   REMARKS
CHEROKEE       CLOUDY    20  19  96 N12       29.81F WCI   8
DENISON        MIX PCPN  23  23 100 N18       29.79F WCI   9
ESTHERVILLE    CLOUDY    19  17  92 MISG      29.77F FOG
LE MARS        CLOUDY    19  18  93 MISG      29.84F FOG
ORANGE CITY    CLOUDY    19  18  93 N13G18    29.81F FOG     WCI   7
SHELDON        LGT SNOW  18  16  93 MISG      29.80F
SIOUX CITY     MIX PCPN  20  18  92 N16       29.84F FOG     WCI   6
SPENCER        MIX PCPN  20  16  84 MISG      29.78F VSB 1
STORM LAKE     SUNNY     21  21 100 MISG      29.77R FOG
$$

ABBREVIATIONS USED IN REMARKS
   TC - TEMPERATURE IN CELSIUS
  WCI - WIND CHILL INDEX
   HX - HEAT INDEX
  VSB - VISIBILITY





USA.gov is the U.S. government's official web portal to all federal, state and local government web resources and services.